Home > Weather > Lubbock > Past weeks

Flag for USA Weather for the Past 2 Weeks in Lubbock, Texas, USA

Now
82 °F

Sunny.


Feels Like: 80 °F
Forecast: 52 / 87 °F
Wind: 9 mph from North

Location: Lubbock International Airport

Current Time: May 4, 2016 at 7:09:24 PM

Latest Report: May 4, 2016 at 5:53 PM


Visibility: 10 mi

Pressure: 30.00 "Hg (26.85 "Hg at 976m altitude)

Humidity: 13%

Dew Point: 27 °F

Location of LubbockLocation

Historic Weather in Lubbock — Graph

°F

Lubbock Temperature Yesterday

Maximum temperature yesterday: 72 °F (at 1:53 PM)
Minimum temperature yesterday: 43 °F (at 6:53 AM)
Average temperature yesterday: 58 °F

High & Low Weather Summary for the Past Weeks

 TemperatureHumidityPressure
High88 °F (Apr 25, 3:53 PM)100% (Apr 21, 4:53 AM)30.23 "Hg (Apr 21, 4:53 AM)
Low39 °F (May 2, 6:53 AM)7% (Apr 29, 3:53 PM)29.44 "Hg (Apr 26, 5:53 PM)
Average63 °F51%29.83 "Hg
* Reported Apr 19 5:53 PM — May 4 5:53 PM, Lubbock, Weather by CustomWeather, © 2016

Note: Actual official high and low records may vary slightly from our data, if they occured in-between our weather recording intervals... More about our weather records

Advertising

Lubbock Weather History for the Previous 24 Hours

Scroll right to see more
 ConditionsComfort  
Time TempWeatherWind HumidityBarometerVisibility
5:53 PM
Wed, May 4
82 °FSunny.9 mph13%30.00 "Hg10 mi
4:53 PM83 °FSunny.10 mph13%30.01 "Hg10 mi
3:53 PM82 °FSunny.5 mph16%30.03 "Hg10 mi
2:53 PM81 °FSunny.6 mph15%30.06 "Hg10 mi
1:53 PM80 °FSunny.10 mph17%30.07 "Hg10 mi
12:53 PM77 °FSunny.6 mph19%30.09 "Hg10 mi
11:53 AM74 °FSunny.10 mph24%30.11 "Hg10 mi
10:53 AM71 °FSunny.10 mph31%30.12 "Hg10 mi
9:53 AM64 °FSunny.12 mph49%30.13 "Hg10 mi
8:53 AM55 °FSunny.12 mph64%30.14 "Hg10 mi
7:53 AM46 °FClear.7 mph79%30.14 "Hg10 mi
6:53 AM41 °FClear.6 mph82%30.14 "Hg9 mi
5:53 AM43 °FClear.8 mph79%30.13 "Hg10 mi
4:53 AM42 °FClear.6 mph85%30.12 "Hg10 mi
3:53 AM43 °FClear.6 mph86%30.11 "Hg10 mi
2:53 AM44 °FClear.6 mph89%30.10 "Hg10 mi
1:53 AM45 °FClear.6 mph90%30.10 "Hg10 mi
12:53 AM49 °FClear.6 mph84%30.09 "Hg10 mi
11:53 PM
Tue, May 3
51 °FClear.7 mph83%30.09 "Hg10 mi
10:53 PM55 °FClear.5 mph72%30.07 "Hg10 mi
9:53 PM56 °FClear.No wind72%30.05 "Hg10 mi
8:53 PM58 °FPassing clouds.3 mph67%30.03 "Hg10 mi
7:53 PM63 °FPassing clouds.No wind56%30.03 "Hg10 mi
Weather by CustomWeather, © 2016

See weather overviewHow to use our weather pages